Erzurum, Turkey

12:45 PM +03 on April 27, 2018 (GMT +0300)
Erzurum

Weather History for LTCE - October, 2012

Change the Weather History Date:

Wednesday, October 10, 2012

  Actual Average Record
Temperature  
Mean Temperature 50 °F -  
Max Temperature 59 °F 53 °F 73 °F (2001)
Min Temperature 42 °F 33 °F 21 °F (1998)
Degree Days  
Heating Degree Days 14    
Moisture  
Dew Point 44 °F    
Average Humidity 82    
Maximum Humidity 100    
Minimum Humidity 44    
Precipitation  
Precipitation 0.12 in 0.06 in - ()
Sea Level Pressure  
Sea Level Pressure 30.09 in    
Wind  
Wind Speed 4 mph ()    
Max Wind Speed 16 mph    
Max Gust Speed -    
Visibility 6.5 miles    
Events Rain    
Averages and records for this station are not official NWS values.
T = Trace of Precipitation, MM = Missing Value Source: Averaged Metar Reports

Daily Weather History Graph

Daily Weather History Graph

Search for Another Location

Airport or City:

Astronomy

Oct. 10, 2012 Rise Set
Actual Time 6:20 AM EEST 5:43 PM EEST
Civil Twilight 5:53 AM EEST 6:10 PM EEST
Nautical Twilight 5:22 AM EEST 6:41 PM EEST
Astronomical Twilight 4:50 AM EEST 7:12 PM EEST
Moon 12:35 AM EEST (10/10) 2:33 PM EEST (10/10)
Length of Visible Light 12h 16m
Length of Day
11h 22m
Waning Crescent, 30% of the Moon is Illuminated
Oct 10
Waning Crescent
Oct 15
New
Oct 22
First Quarter
Oct 29
Full
Nov 7
Last Quarter

Hourly Weather History & Observations

Time (EEST) Temp. Windchill Dew Point Humidity Pressure Visibility Wind Dir Wind Speed Gust Speed Precip Events Conditions
12:20 AM 44.6 °F - 42.8 °F 93% 30.06 in 6.2 mi Variable 1.2 mph - N/A Rain Light Rain Showers
12:50 AM 44.6 °F - 44.6 °F 100% 30.06 in 6.2 mi Variable 1.2 mph - N/A   Mostly Cloudy
1:20 AM 44.6 °F - 44.6 °F 100% 30.06 in 6.2 mi Variable 2.3 mph - N/A Rain Light Rain Showers
1:50 AM 44.6 °F - 44.6 °F 100% 30.06 in 6.2 mi Calm Calm - N/A   Mostly Cloudy
2:20 AM 44.6 °F - 42.8 °F 93% 30.06 in 6.2 mi Variable 1.2 mph - N/A   Mostly Cloudy
2:50 AM 44.6 °F - 44.6 °F 100% 30.06 in 6.2 mi Variable 2.3 mph - N/A   Mostly Cloudy
3:00 AM 44 °F - 44 °F 97%  in 12 mi South 2.3 mph - - Rain Light Rain Showers
3:20 AM 44.6 °F 41.4 °F 44.6 °F 100% 30.06 in 6.2 mi West 5.8 mph - N/A   Mostly Cloudy
3:50 AM 44.6 °F - 44.6 °F 100% 30.06 in 6.2 mi Variable 1.2 mph - N/A   Mostly Cloudy
4:20 AM 44.6 °F - 42.8 °F 93% 30.06 in 6.2 mi Variable 1.2 mph - N/A   Mostly Cloudy
4:50 AM 44.6 °F 38.8 °F 44.6 °F 100% 30.09 in 6.2 mi West 11.5 mph - N/A Rain Light Rain Showers
5:20 AM 44.6 °F 43.1 °F 42.8 °F 93% 30.06 in 6.2 mi NW 3.5 mph - N/A Rain Light Rain Showers
5:50 AM 42.8 °F 40.1 °F 42.8 °F 100% 30.06 in 6.2 mi SSE 4.6 mph - N/A   Mostly Cloudy
6:20 AM 42.8 °F 41.1 °F 42.8 °F 100% 30.06 in 6.2 mi South 3.5 mph - N/A   Mostly Cloudy
6:50 AM 42.8 °F - 42.8 °F 100% 30.06 in 6.2 mi Variable 2.3 mph - N/A   Mostly Cloudy
7:20 AM 44.6 °F 43.1 °F 42.8 °F 93% 30.09 in 6.2 mi Variable 3.5 mph - N/A   Mostly Cloudy
7:50 AM 44.6 °F 42.2 °F 42.8 °F 93% 30.09 in 6.2 mi North 4.6 mph - N/A   Scattered Clouds
8:20 AM 46.4 °F 44.3 °F 44.6 °F 93% 30.09 in 6.2 mi North 4.6 mph - N/A   Scattered Clouds
8:50 AM 48.2 °F - 44.6 °F 87% 30.09 in 6.2 mi East 5.8 mph - N/A   Mostly Cloudy
9:00 AM 48 °F - 44 °F 80%  in 12 mi East 4.6 mph - -   Partly Cloudy
9:20 AM 50.0 °F - 41.0 °F 71% 30.09 in 6.2 mi East 4.6 mph - N/A   Mostly Cloudy
9:50 AM 50.0 °F - 41.0 °F 71% 30.09 in 6.2 mi Variable 2.3 mph - N/A   Mostly Cloudy
10:20 AM 51.8 °F - 42.8 °F 71% 30.09 in 6.2 mi Variable 2.3 mph - N/A   Mostly Cloudy
10:50 AM 55.4 °F - 42.8 °F 63% 30.09 in 6.2 mi NW 4.6 mph - N/A   Mostly Cloudy
11:20 AM 53.6 °F - 42.8 °F 67% 30.09 in 6.2 mi NW 4.6 mph - N/A   Mostly Cloudy
11:50 AM 55.4 °F - 44.6 °F 67% 30.09 in 6.2 mi WNW 6.9 mph - N/A   Mostly Cloudy
12:20 PM 57.2 °F - 44.6 °F 63% 30.09 in 6.2 mi West 6.9 mph - N/A   Mostly Cloudy
12:50 PM 57.2 °F - 44.6 °F 63% 30.09 in 6.2 mi Variable 3.5 mph - N/A   Mostly Cloudy
1:20 PM 57.2 °F - 41.0 °F 55% 30.06 in 6.2 mi West 6.9 mph - N/A   Mostly Cloudy
1:50 PM 57.2 °F - 41.0 °F 55% 30.06 in 6.2 mi SSW 10.4 mph - N/A   Mostly Cloudy
2:20 PM 59.0 °F - 41.0 °F 51% 30.06 in 6.2 mi SSW 16.1 mph - N/A   Mostly Cloudy
2:50 PM 57.2 °F - 41.0 °F 55% 30.06 in 6.2 mi SSW 11.5 mph - N/A   Mostly Cloudy
3:00 PM 57 °F - 41 °F 44%  in 12 mi SSW 11.5 mph - -   Partly Cloudy
3:20 PM 57.2 °F - 41.0 °F 55% 30.06 in 6.2 mi SSW 12.7 mph - N/A   Mostly Cloudy
3:50 PM 57.2 °F - 41.0 °F 55% 30.09 in 6.2 mi SSW 10.4 mph - N/A   Mostly Cloudy
4:20 PM 57.2 °F - 41.0 °F 55% 30.09 in 6.2 mi SSW 9.2 mph - N/A   Mostly Cloudy
4:50 PM 55.4 °F - 41.0 °F 58% 30.09 in 6.2 mi South 9.2 mph - N/A   Mostly Cloudy
5:20 PM 53.6 °F - 42.8 °F 67% 30.09 in 6.2 mi SW 10.4 mph - N/A   Mostly Cloudy
5:50 PM 51.8 °F - 42.8 °F 71% 30.09 in 6.2 mi SSW 11.5 mph - N/A Rain Light Rain Showers
6:20 PM 51.8 °F - 44.6 °F 76% 30.12 in 6.2 mi SSW 10.4 mph - N/A Rain Light Rain Showers
6:50 PM 50.0 °F - 44.6 °F 82% 30.12 in 6.2 mi SW 6.9 mph - N/A Rain Light Rain Showers
7:20 PM 50.0 °F - 44.6 °F 82% 30.15 in 6.2 mi WSW 8.1 mph - N/A Rain Light Rain Showers
7:50 PM 48.2 °F - 44.6 °F 87% 30.15 in 6.2 mi West 9.2 mph - N/A Rain Light Rain Showers
8:20 PM 48.2 °F - 44.6 °F 87% 30.15 in 6.2 mi NW 5.8 mph - N/A Rain Light Rain Showers
8:50 PM 48.2 °F - 46.4 °F 93% 30.15 in 6.2 mi NNW 8.1 mph - N/A Rain Light Rain Showers
9:00 PM 47 °F - 46 °F 94%  in 6 mi NNW 8.1 mph - - Rain Heavy Rain Showers
9:20 PM 46.4 °F 43.5 °F 46.4 °F 100% 30.15 in 6.2 mi North 5.8 mph - N/A Rain Light Rain Showers
9:50 PM 46.4 °F 44.3 °F 46.4 °F 100% 30.15 in 6.2 mi NE 4.6 mph - N/A Rain Light Rain Showers
10:20 PM 46.4 °F 44.3 °F 46.4 °F 100% 30.15 in 6.2 mi ENE 4.6 mph - N/A   Mostly Cloudy
10:50 PM 46.4 °F 44.3 °F 46.4 °F 100% 30.15 in 6.2 mi ENE 4.6 mph - N/A   Mostly Cloudy
11:20 PM 46.4 °F 43.5 °F 46.4 °F 100% 30.15 in 6.2 mi ENE 5.8 mph - N/A   Mostly Cloudy
11:50 PM 46.4 °F 45.2 °F 46.4 °F 100% 30.15 in 6.2 mi East 3.5 mph - N/A   Mostly Cloudy